KM4NDI Weather Reports


time (UTC)temp
C
wind
direction
speed
KPH
gust
KPH
rain 1hr
cm
rain 24hr
cm
rain mn
cm
humidity
%
barometer
mb
20260510201522 35 0.0 0.0 0.00 0.00 0.00 45 1017.7
20260510200543 35 0.0 0.0 0.00 0.00 0.00 50 1017.9
20260510195536 33 0.0 0.0 0.00 0.00 0.00 55 1018.0
20260510194519 33 0.0 0.0 0.00 0.00 0.00 53 1018.0
20260510193522 32 0.0 0.0 0.00 0.00 0.00 61 1018.1
20260510192525 31 0.0 0.0 0.00 0.00 0.00 59 1018.2
20260510191528 33 0.0 0.0 0.00 0.00 0.00 51 1018.2
20260510190531 35 0.0 0.0 0.00 0.00 0.00 46 1018.2
20260510185516 35 125 4.8 6.4 0.00 0.00 0.00 46 1018.4
20260510184539 35 134 1.6 4.8 0.00 0.00 0.00 47 1018.3
20260510183522 33 263 1.6 3.2 0.00 0.00 0.00 49 1018.4
20260510182525 34 248 0.0 3.2 0.00 0.00 0.00 46 1018.4
20260510181528 33 251 1.6 4.8 0.00 0.00 0.00 53 1018.4
20260510180531 35 270 1.6 3.2 0.00 0.00 0.00 48 1018.7
20260510175537 36 180 3.2 6.4 0.00 0.00 0.00 45 1018.7
20260510174520 35 180 1.6 3.2 0.00 0.00 0.00 49 1018.9
20260510173522 34 139 1.6 4.8 0.00 0.00 0.00 51 1019.1
20260510172526 35 266 3.2 3.2 0.00 0.00 0.00 49 1019.2
20260510171603 34 246 1.6 3.2 0.00 0.00 0.00 52 1019.4
20260510170520 34 292 1.6 3.2 0.00 0.00 0.00 54 1019.4
20260510165517 33 133 0.0 4.8 0.00 0.00 0.00 56 1019.4
20260510164520 34 76 1.6 4.8 0.00 0.00 0.00 56 1019.5
20260510163523 34 224 1.6 4.8 0.00 0.00 0.00 56 1019.5
20260510162526 33 250 1.6 3.2 0.00 0.00 0.00 55 1019.5
20260510161530 33 125 3.2 6.4 0.00 0.00 0.00 58 1019.5
20260510160532 31 259 0.0 1.6 0.00 0.00 0.00 64 1019.7
20260510155517 32 104 1.6 3.2 0.00 0.00 0.00 60 1019.5
20260510154521 31 267 1.6 3.2 0.00 0.00 0.00 61 1019.4
20260510153524 32 234 1.6 6.4 0.00 0.00 0.00 62 1019.6
20260510152526 31 0.0 0.0 0.00 0.00 0.00 65 1019.7
20260510151530 31 287 1.6 4.8 0.00 0.00 0.00 65 1019.7
20260510150515 29 105 1.6 3.2 0.00 0.00 0.00 69 1019.7
20260510145538 28 75 3.2 6.4 0.00 0.00 0.00 74 1019.7
20260510144521 27 0.0 0.0 0.00 0.00 0.00 76 1019.9
20260510143524 27 0.0 0.0 0.00 0.00 0.00 78 1019.9
20260510142527 27 0.0 0.0 0.00 0.00 0.00 80 1020.0
20260510141531 27 0.0 0.0 0.00 0.00 0.00 82 1020.1
20260510140516 26 0.0 0.0 0.00 0.00 0.00 86 1020.1
20260510135518 24 0.0 0.0 0.00 0.00 0.00 93 1020.1
20260510134522 24 0.0 0.0 0.00 0.00 0.00 94 1020.1
20260510133519 23 0.0 3.2 0.00 0.00 0.00 98 1019.9
20260510132516 23 0.0 0.0 0.00 0.00 0.00 99 1019.7
20260510131531 23 0.0 0.0 0.00 0.00 0.00 99 1019.5
20260510130556 22 0.0 1.6 0.00 0.00 0.00 99 1019.5
20260510125519 22 0.0 0.0 0.00 0.00 0.00 99 1019.4
20260510124522 22 0.0 0.0 0.00 0.00 0.00 99 1019.2
20260510123525 22 0.0 0.0 0.00 0.00 0.00 99 1019.0
20260510122528 22 0.0 0.0 0.00 0.00 0.00 99 1018.9
20260510121531 22 0.0 0.0 0.00 0.00 0.00 99 1018.8
20260510120537 21 0.0 0.0 0.00 0.00 0.00 99 1018.5
20260510115519 21 0.0 0.0 0.00 0.00 0.00 99 1018.3
20260510114523 21 0.0 0.0 0.00 0.00 0.00 99 1018.2
20260510113606 21 0.0 0.0 0.00 0.00 0.00 99 1018.1
20260510112609 21 0.0 0.0 0.00 0.00 0.00 99 1018.0
20260510111532 21 0.0 0.0 0.00 0.00 0.00 99 1017.7
20260510110558 21 0.0 0.0 0.00 0.00 0.00 99 1017.5
20260510105520 21 0.0 0.0 0.00 0.00 0.00 99 1017.4
20260510104523 21 0.0 0.0 0.00 0.00 0.00 99 1017.2
20260510103527 21 0.0 0.0 0.00 0.00 0.00 99 1017.2
20260510102524 21 0.0 0.0 0.00 0.00 0.00 99 1017.2
20260510101515 21 0.0 0.0 0.00 0.00 0.00 99 1017.2
20260510100518 21 0.0 0.0 0.00 0.00 0.00 99 1017.0
20260510095515 21 0.0 0.0 0.00 0.00 0.00 99 1016.8
20260510094525 20 0.0 0.0 0.00 0.00 0.00 99 1016.7
20260510093527 21 0.0 0.0 0.00 0.00 0.00 99 1016.5
20260510092551 21 0.0 0.0 0.00 0.00 0.00 99 1016.5
20260510091516 20 0.0 0.0 0.00 0.00 0.00 99 1016.5
20260510090519 20 0.0 0.0 0.00 0.00 0.00 99 1016.5
20260510085522 20 0.0 0.0 0.00 0.00 0.00 99 1016.4
20260510084525 20 0.0 0.0 0.00 0.00 0.00 99 1016.2
20260510083548 20 0.0 0.0 0.00 0.00 0.00 99 1016.1
20260510082531 20 0.0 0.0 0.00 0.00 0.00 99 1016.1
20260510081516 20 0.0 0.0 0.00 0.00 0.00 99 1016.0
20260510080519 20 0.0 0.0 0.00 0.00 0.00 99 1015.9
20260510075542 20 0.0 0.0 0.00 0.00 0.00 99 1015.8
20260510074546 20 0.0 0.0 0.00 0.00 0.00 99 1015.8
20260510073528 20 0.0 0.0 0.00 0.00 0.00 99 1015.8
20260510072532 20 0.0 0.0 0.00 0.00 0.00 99 1015.8
20260510071537 20 0.0 0.0 0.00 0.00 0.00 99 1015.9
20260510070520 20 0.0 0.0 0.00 0.00 0.00 99 1016.0
20260510065523 20 0.0 0.0 0.00 0.00 0.00 99 1016.1
20260510064520 20 0.0 0.0 0.00 0.00 0.00 99 1016.0
20260510063518 20 0.0 0.0 0.00 0.00 0.00 99 1016.0
20260510062533 20 0.0 0.0 0.00 0.00 0.00 99 1016.0
20260510061517 20 0.0 0.0 0.00 0.00 0.00 99 1016.1
20260510060521 20 0.0 0.0 0.00 0.00 0.00 99 1016.3
20260510055524 20 0.0 0.0 0.00 0.00 0.00 99 1016.4
20260510054527 20 0.0 0.0 0.00 0.00 0.00 99 1016.5
20260510053530 19 0.0 0.0 0.00 0.00 0.00 99 1016.4
20260510052515 20 0.0 0.0 0.00 0.00 0.00 99 1016.4
20260510051519 20 0.0 0.0 0.00 0.00 0.00 99 1016.3
20260510050522 19 0.0 0.0 0.00 0.00 0.00 99 1016.3
20260510045524 19 0.0 0.0 0.00 0.00 0.00 99 1016.5
20260510044527 19 0.0 0.0 0.00 0.00 0.00 99 1016.5
20260510043530 18 0.0 0.0 0.00 0.00 0.00 99 1016.5
20260510042515 19 0.0 0.0 0.00 0.00 0.00 99 1016.5
20260510041519 18 0.0 0.0 0.00 0.00 0.00 99 1016.4
20260510040522 19 0.0 0.0 0.00 0.00 0.00 99 1016.5
20260510035545 18 0.0 0.0 0.00 0.00 0.00 99 1016.6
20260510034608 18 0.0 0.0 0.00 0.00 0.00 99 1016.5
20260510033525 20 0.0 0.0 0.00 0.00 0.00 99 1016.5
20260510032516 20 0.0 0.0 0.00 0.00 0.00 99 1016.5
20260510031519 20 0.0 0.0 0.00 0.00 0.00 99 1016.5
20260510030516 20 0.0 0.0 0.00 0.00 0.00 99 1016.3
20260510025525 20 0.0 0.0 0.00 0.00 0.00 99 1016.1
20260510024528 20 0.0 0.0 0.00 0.00 0.00 99 1016.2
20260510023532 21 0.0 0.0 0.00 0.00 0.00 99 1015.9
20260510022517 21 0.0 0.0 0.00 0.00 0.00 99 1015.8
20260510021520 21 0.0 0.0 0.00 0.00 0.00 99 1015.7
20260510020543 21 0.0 0.0 0.00 0.00 0.00 99 1015.6
20260510015606 21 0.0 0.0 0.00 0.00 0.00 99 1015.3
20260510014529 22 0.0 0.0 0.00 0.00 0.00 99 1015.0
20260510013532 22 0.0 0.0 0.00 0.00 0.00 99 1014.9
20260510012517 22 0.0 0.0 0.00 0.00 0.00 99 1014.8
20260510011540 22 0.0 0.0 0.00 0.00 0.00 99 1014.7
20260510010524 22 0.0 0.0 0.00 0.00 0.00 99 1014.5
20260510005527 22 0.0 0.0 0.00 0.00 0.00 99 1014.3
20260510004530 23 0.0 0.0 0.00 0.00 0.00 99 1014.1
20260510003515 23 0.0 0.0 0.00 0.00 0.00 99 1014.1
20260510002518 23 0.0 0.0 0.00 0.00 0.00 99 1014.1
20260510001521 23 0.0 0.0 0.00 0.00 0.00 99 1014.1
20260510000524 24 0.0 0.0 0.00 0.00 0.00 99 1013.8
20260509235522 24 0.0 0.0 0.00 0.00 0.00 99 1013.8
20260509234519 25 0.0 0.0 0.00 0.00 0.00 96 1013.6
20260509233536 25 0.0 0.0 0.00 0.00 0.00 94 1013.5
20260509232519 26 0.0 0.0 0.00 0.00 0.00 91 1013.4
20260509231522 25 0.0 0.0 0.00 0.00 0.00 94 1013.3
20260509230525 26 0.0 0.0 0.00 0.00 0.00 85 1013.1
20260509225528 26 0.0 0.0 0.00 0.00 0.00 83 1013.3
20260509224531 27 0.0 0.0 0.00 0.00 0.00 79 1013.3
20260509223536 28 0.0 0.0 0.00 0.00 0.00 77 1013.2
20260509222519 28 0.0 0.0 0.00 0.00 0.00 77 1013.1
20260509221523 28 0.0 0.0 0.00 0.00 0.00 74 1012.9
20260509220526 28 0.0 0.0 0.00 0.00 0.00 71 1012.9
20260509215529 30 0.0 0.0 0.00 0.00 0.00 63 1012.9
20260509214552 29 0.0 0.0 0.00 0.00 0.00 69 1012.8
20260509213517 28 0.0 0.0 0.00 0.00 0.00 70 1012.7
20260509212520 30 0.0 0.0 0.00 0.00 0.00 65 1012.7
20260509211523 30 0.0 0.0 0.00 0.00 0.00 64 1012.8
20260509210526 30 0.0 0.0 0.00 0.00 0.00 64 1012.4
20260509205530 31 143 1.6 6.4 0.00 0.00 0.00 63 1012.7
20260509204547 30 0.0 0.0 0.00 0.00 0.00 63 1012.9
20260509203518 31 0.0 0.0 0.00 0.00 0.00 61 1012.7
20260509202521 30 0.0 0.0 0.00 0.00 0.00 70 1012.7